Temp
19 19 20 20 18 17 17 19 18 20 21 21 21 21 22 22 23 24 23 22 21 21 19 18 16 15 15 15 14 14 14 13 13 13 11 11 11 12 12 12 11 11 10 10 12 12 11 11 11
19 19 20 19 17 18 18 17 19 20 20 20 21 21 21 23 23 23 23 23 22 21 20 18 16 16 15 15 14 13 13 13 13 13 11 12 12 12 11 11 11 11 10 11 14 12 11 11 10
19 19 19 14 14 18 18 18 19 19 20 19 21 22 22 23 24 23 23 23 22 21 20 18 16 16 15 14 14 14 13 13 13 13 12 13 12 12 12 11 13 12 12 12 12 12 10 10 11
19 19 17 17 16 17 17 18 18 18 21 20 21 22 22 23 23 23 23 23 22 21 20 18 17 15 15 15 14 14 13 13 14 13 12 13 13 12 12 13 13 12 12 12 12 12 12 12 11
19 18 15 15 16 16 17 17 17 18 18 20 21 22 22 24 24 23 23 23 22 21 20 18 17 15 15 15 14 14 13 13 13 12 12 13 13 12 12 13 12 12 12 12 12 12 12 12 11
18 16 16 16 15 16 16 18 17 17 17 19 20 21 23 23 23 23 22 22 21 21 20 18 17 15 15 15 14 14 13 13 13 13 12 12 13 12 12 12 12 12 12 11 11 11 11 11 12
16 15 15 15 15 15 17 18 18 17 17 20 20 20 22 22 22 22 22 22 21 20 20 19 18 16 15 14 14 14 13 13 13 13 12 12 12 13 12 12 12 11 11 10 11 10 10 10 10
17 14 14 14 15 17 17 18 18 18 19 20 20 21 22 22 22 22 22 21 21 20 20 19 18 17 16 15 14 14 14 13 13 13 13 13 13 13 12 12 11 11 12 11 10 10 10 10 10
16 14 14 15 14 17 17 17 18 18 18 19 20 21 21 21 22 22 22 21 20 20 20 20 19 18 17 16 15 15 14 14 14 14 13 13 14 13 13 13 13 12 12 12 12 10 10 10 10
14 13 14 15 15 16 17 16 17 17 17 19 20 21 21 21 21 22 22 21 20 19 19 19 19 19 18 17 17 16 16 15 15 15 14 14 14 14 14 14 14 14 13 13 13 13 13 12 12
13 14 14 16 17 17 16 16 17 17 17 19 20 21 21 21 21 21 21 21 21 20 19 19 19 18 18 18 17 17 16 16 16 16 15 15 15 15 15 15 15 14 14 14 14 13 13 13 13
14 14 15 16 17 16 15 16 16 17 19 20 20 20 20 21 21 21 22 21 20 20 19 19 19 19 18 18 18 17 17 16 16 16 16 16 16 16 15 15 14 14 14 14 14 14 14 14 14
13 14 15 16 17 16 16 15 16 16 19 20 20 20 20 21 21 21 21 21 20 20 19 19 19 19 18 18 18 18 17 17 16 16 16 16 15 15 15 15 15 15 14 14 14 14 13 13 13
14 15 16 16 17 16 15 16 16 19 19 19 19 20 20 21 21 21 21 21 20 20 20 20 20 19 18 18 18 17 17 17 16 16 15 15 15 15 15 15 15 14 14 13 13 13 13 12 12
15 14 14 15 16 16 16 15 14 20 18 17 18 19 20 18 19 21 21 21 21 20 20 20 20 20 20 19 18 18 17 17 16 16 15 14 14 14 14 14 14 13 13 13 12 12 12 12 12
14 14 14 15 15 16 17 17 17 17 16 17 18 18 17 17 18 18 19 20 20 20 20 20 21 21 20 19 18 18 17 16 16 15 14 14 14 13 13 13 13 13 13 13 13 12 12 12 12
13 13 12 14 14 15 15 15 16 17 18 17 18 17 16 16 16 17 18 19 19 19 19 19 20 20 20 18 18 17 17 17 16 15 14 14 13 13 14 14 14 13 13 13 13 12 12 12 12
13 12 13 14 15 13 14 14 15 15 16 17 17 16 15 15 15 16 17 18 18 18 19 19 19 19 18 18 17 17 16 16 15 15 14 14 14 14 14 13 13 13 13 12 12 12 12 12 12
12 13 14 13 14 14 14 13 15 16 15 15 14 14 14 15 14 15 16 17 17 18 18 18 19 19 18 18 17 16 15 15 14 14 14 13 13 13 13 12 12 12 12 11 11 11 11 11 11
13 13 13 13 13 14 14 14 15 14 14 16 15 13 14 14 14 15 15 16 17 17 18 18 18 18 18 17 16 15 14 13 13 12 12 12 12 12 12 12 11 11 11 11 11 10 10 10 10
12 12 12 13 13 13 12 14 14 14 14 13 13 14 14 14 14 14 14 15 15 16 17 17 17 17 16 15 15 14 13 12 12 12 12 12 11 11 11 11 11 10 10 10 10 9 9 8 9
12 12 13 13 13 13 13 14 13 15 13 12 11 12 13 13 13 14 15 15 15 15 15 15 15 15 14 14 14 14 13 13 11 11 11 11 11 11 11 11 10 10 10 10 9 9 9 8 8
13 13 13 13 13 12 12 13 14 12 13 12 10 11 12 13 13 14 14 14 14 13 14 14 14 14 13 13 13 12 12 11 11 11 11 11 11 10 10 10 10 9 9 8 8 8 8 7 6
12 12 12 11 12 12 12 14 15 14 14 11 10 11 12 12 13 13 13 13 13 13 13 13 13 13 12 12 12 12 12 11 11 11 11 11 10 10 10 10 9 9 8 8 7 7 7 6 6
12 13 10 11 12 13 10 11 15 13 13 13 12 11 12 13 13 12 12 12 12 12 12 12 12 12 12 11 11 11 11 10 10 10 10 10 10 10 9 9 8 8 7 7 6 6 6 6 5
11 12 12 13 12 13 9 12 16 13 12 12 13 13 12 12 12 12 12 12 12 11 11 11 11 11 11 11 11 10 10 10 9 9 9 8 8 8 7 7 7 7 6 6 6 6 5 5 4
10 11 12 11 10 11 12 13 14 13 11 10 10 12 12 12 12 12 12 11 11 11 11 11 10 11 10 10 10 9 9 9 9 8 8 7 7 7 7 6 6 6 5 5 5 4 4 4 3
12 12 12 11 13 13 12 12 15 14 13 10 9 9 11 12 12 11 11 11 10 10 10 10 10 10 10 9 9 8 8 8 8 7 7 6 6 5 5 5 4 4 4 4 4 4 4 3 2
11 10 10 12 11 13 13 14 12 13 11 11 9 11 12 12 12 11 10 10 10 9 9 9 9 9 9 8 8 7 7 7 6 6 6 5 4 4 4 3 3 3 4 3 3 3 2 2 1
12 12 12 12 11 8 10 13 11 9 9 9 9 12 12 13 12 11 10 9 9 9 8 8 8 8 7 7 6 6 6 6 5 5 4 4 3 3 3 3 3 3 3 2 2 2 1 -1 -2
Height
1536 1534 1531 1530 1536 1537 1540 1533 1528 1526 1523 1521 1520 1520 1518 1516 1516 1521 1512 1511 1510 1510 1511 1512 1514 1516 1517 1518 1520 1520 1520 1520 1519 1518 1518 1519 1519 1519 1520 1520 1520 1521 1520 1518 1519 1521 1523 1524 1524
1535 1533 1531 1530 1539 1542 1538 1530 1528 1526 1524 1520 1516 1516 1517 1513 1513 1512 1511 1510 1510 1510 1510 1512 1513 1515 1517 1518 1519 1520 1520 1519 1518 1518 1518 1519 1519 1519 1519 1519 1519 1519 1519 1518 1518 1519 1520 1522 1522
1534 1532 1532 1535 1546 1541 1536 1529 1527 1522 1519 1518 1516 1515 1514 1512 1511 1511 1511 1510 1510 1510 1510 1511 1512 1515 1516 1518 1519 1519 1519 1518 1517 1517 1518 1519 1520 1519 1518 1518 1518 1518 1518 1517 1517 1518 1518 1518 1520
1532 1533 1536 1538 1542 1535 1532 1527 1526 1522 1517 1516 1516 1515 1514 1511 1510 1510 1510 1510 1510 1510 1510 1511 1512 1514 1516 1517 1518 1517 1517 1517 1517 1517 1518 1518 1520 1520 1518 1517 1517 1517 1517 1517 1516 1516 1516 1516 1517
1532 1534 1540 1543 1542 1535 1530 1527 1526 1524 1520 1517 1516 1513 1512 1510 1509 1510 1509 1509 1510 1510 1510 1511 1512 1513 1515 1516 1516 1516 1516 1516 1516 1517 1518 1519 1519 1520 1518 1517 1517 1516 1516 1516 1515 1515 1515 1515 1515
1533 1535 1542 1544 1542 1534 1529 1526 1525 1523 1520 1517 1517 1514 1510 1509 1509 1509 1509 1509 1509 1509 1509 1510 1512 1512 1513 1514 1515 1515 1514 1515 1515 1516 1517 1518 1518 1518 1517 1516 1516 1516 1515 1514 1514 1515 1514 1514 1513
1533 1536 1541 1542 1540 1535 1528 1525 1524 1523 1519 1517 1516 1514 1511 1509 1508 1508 1508 1508 1508 1509 1508 1509 1511 1512 1512 1513 1513 1513 1513 1514 1514 1515 1516 1516 1516 1516 1516 1516 1516 1515 1515 1514 1514 1514 1514 1512 1511
1531 1533 1542 1540 1538 1533 1525 1524 1524 1522 1518 1517 1515 1513 1511 1509 1508 1507 1508 1507 1507 1508 1508 1508 1510 1511 1510 1511 1511 1512 1512 1512 1513 1513 1514 1514 1514 1514 1515 1514 1514 1514 1513 1513 1513 1513 1512 1511 1510
1530 1535 1538 1535 1537 1527 1523 1523 1521 1520 1518 1517 1514 1512 1511 1508 1507 1506 1506 1507 1507 1507 1508 1508 1508 1509 1509 1510 1510 1510 1511 1511 1512 1512 1512 1512 1513 1513 1513 1513 1513 1512 1512 1511 1510 1510 1510 1509 1507
1528 1532 1529 1526 1526 1524 1522 1522 1520 1518 1516 1512 1511 1510 1509 1507 1506 1505 1505 1506 1506 1507 1508 1507 1507 1508 1507 1508 1508 1508 1509 1510 1510 1510 1510 1511 1511 1512 1512 1512 1512 1511 1511 1510 1509 1508 1507 1506 1505
1523 1524 1523 1520 1522 1522 1521 1519 1517 1516 1512 1510 1509 1506 1505 1504 1504 1503 1503 1503 1504 1504 1505 1505 1506 1506 1506 1506 1507 1507 1508 1508 1508 1509 1509 1510 1510 1510 1510 1510 1510 1510 1509 1508 1507 1506 1505 1504 1502
1522 1519 1518 1518 1520 1520 1519 1516 1514 1513 1506 1507 1506 1504 1503 1501 1501 1500 1500 1500 1501 1502 1503 1503 1503 1503 1503 1504 1504 1505 1506 1506 1507 1507 1508 1508 1508 1509 1509 1509 1508 1508 1507 1506 1505 1503 1502 1500 1498
1518 1516 1516 1516 1517 1516 1516 1511 1511 1506 1501 1501 1500 1500 1500 1498 1498 1498 1497 1497 1498 1498 1499 1499 1499 1499 1500 1501 1502 1502 1504 1504 1505 1506 1507 1507 1507 1507 1507 1506 1506 1505 1504 1503 1501 1499 1497 1495 1493
1512 1513 1513 1513 1513 1513 1512 1507 1507 1494 1497 1496 1497 1497 1496 1494 1494 1495 1494 1493 1494 1495 1495 1495 1495 1495 1496 1497 1498 1500 1501 1502 1503 1504 1505 1505 1505 1505 1504 1504 1503 1502 1501 1499 1497 1494 1492 1489 1487
1510 1513 1512 1510 1510 1509 1507 1503 1500 1492 1491 1490 1493 1494 1491 1489 1490 1491 1491 1491 1491 1491 1491 1491 1490 1490 1491 1493 1495 1496 1498 1500 1501 1502 1503 1503 1503 1502 1501 1500 1499 1498 1496 1494 1492 1489 1486 1483 1481
1508 1512 1515 1506 1506 1505 1505 1494 1493 1490 1488 1490 1491 1490 1489 1488 1488 1489 1489 1489 1489 1489 1488 1487 1487 1486 1487 1490 1492 1494 1495 1497 1498 1499 1499 1500 1500 1499 1498 1496 1495 1494 1492 1490 1487 1485 1481 1478 1475
1507 1512 1513 1509 1501 1503 1503 1494 1489 1489 1490 1490 1490 1488 1488 1488 1489 1488 1487 1488 1487 1487 1486 1484 1482 1482 1483 1485 1488 1490 1492 1493 1494 1495 1495 1496 1496 1495 1494 1493 1491 1489 1487 1485 1482 1479 1475 1472 1468
1504 1509 1509 1507 1501 1502 1501 1495 1488 1485 1485 1485 1486 1487 1487 1488 1489 1488 1488 1487 1487 1486 1485 1484 1482 1481 1483 1484 1486 1488 1489 1489 1490 1491 1492 1492 1492 1491 1490 1489 1487 1485 1483 1480 1477 1473 1470 1466 1462
1498 1502 1502 1500 1499 1500 1496 1494 1485 1479 1481 1481 1483 1484 1486 1487 1489 1489 1489 1488 1487 1487 1486 1484 1483 1483 1485 1485 1486 1487 1487 1488 1489 1489 1490 1490 1489 1489 1487 1486 1484 1482 1479 1476 1473 1469 1465 1462 1458
1494 1498 1503 1499 1498 1499 1494 1487 1477 1475 1475 1476 1477 1482 1484 1485 1488 1489 1489 1489 1489 1488 1487 1485 1485 1486 1486 1485 1486 1486 1487 1488 1489 1489 1489 1489 1488 1487 1486 1484 1482 1480 1478 1475 1471 1466 1461 1459 1456
1493 1497 1501 1499 1499 1497 1496 1485 1478 1473 1473 1473 1475 1478 1482 1483 1486 1489 1489 1489 1491 1490 1488 1487 1487 1487 1487 1487 1488 1488 1488 1489 1490 1490 1489 1488 1488 1487 1485 1483 1481 1478 1474 1470 1466 1462 1458 1453 1452
1492 1492 1493 1497 1501 1504 1497 1499 1484 1471 1473 1474 1476 1478 1478 1482 1485 1488 1488 1490 1492 1492 1491 1490 1489 1489 1489 1490 1491 1491 1490 1490 1490 1490 1489 1488 1487 1485 1483 1481 1478 1474 1471 1467 1463 1459 1456 1451 1447
1488 1488 1492 1496 1500 1505 1503 1504 1478 1475 1471 1472 1474 1478 1479 1481 1484 1486 1489 1490 1491 1493 1493 1492 1491 1490 1490 1491 1492 1492 1491 1491 1491 1491 1490 1488 1486 1483 1481 1477 1474 1470 1466 1463 1459 1455 1452 1448 1443
1483 1490 1496 1499 1502 1508 1498 1495 1477 1471 1466 1469 1472 1476 1479 1479 1482 1486 1489 1491 1492 1493 1494 1494 1493 1492 1493 1492 1493 1492 1492 1492 1491 1489 1487 1485 1482 1480 1476 1473 1469 1465 1461 1457 1453 1449 1446 1442 1438
1483 1488 1511 1514 1507 1502 1502 1503 1472 1465 1463 1462 1465 1471 1476 1477 1479 1484 1488 1490 1492 1493 1494 1494 1494 1493 1493 1493 1492 1491 1491 1490 1489 1487 1485 1483 1480 1476 1472 1468 1465 1461 1457 1453 1449 1445 1441 1437 1433
1483 1484 1494 1497 1505 1498 1504 1493 1466 1459 1459 1459 1462 1467 1473 1476 1479 1483 1487 1490 1492 1493 1494 1494 1494 1493 1492 1492 1491 1491 1491 1489 1487 1485 1482 1479 1476 1473 1469 1465 1461 1457 1454 1449 1445 1441 1436 1431 1427
1485 1490 1483 1495 1504 1501 1488 1475 1460 1459 1460 1459 1460 1465 1469 1473 1477 1482 1486 1489 1491 1493 1493 1493 1493 1491 1491 1491 1490 1490 1489 1488 1486 1483 1480 1477 1473 1470 1466 1462 1459 1455 1451 1446 1440 1436 1431 1426 1421
1470 1475 1489 1492 1493 1496 1489 1485 1470 1460 1460 1461 1463 1465 1468 1473 1477 1480 1484 1488 1490 1491 1491 1492 1492 1490 1490 1490 1490 1489 1487 1485 1483 1480 1477 1474 1470 1467 1463 1459 1455 1451 1446 1441 1436 1431 1426 1420 1416
1474 1480 1486 1481 1488 1486 1490 1475 1465 1461 1459 1458 1459 1462 1466 1471 1475 1479 1483 1486 1487 1488 1490 1490 1490 1490 1489 1489 1488 1487 1484 1482 1479 1477 1474 1470 1467 1463 1459 1454 1450 1446 1441 1437 1431 1426 1420 1414 1408
1461 1467 1471 1478 1489 1497 1493 1476 1461 1459 1456 1455 1456 1460 1466 1471 1475 1478 1480 1483 1485 1486 1488 1488 1488 1489 1488 1487 1485 1483 1481 1479 1476 1473 1470 1466 1463 1459 1455 1451 1446 1441 1437 1431 1425 1419 1413 1407 1402
Wind_Speed
16 16 13 1 2 3 1 4 1 3 3 3 13 5 3 4 3 2 5 3 3 3 2 9 15 13 11 11 9 6 7 7 7 5 3 4 2 1 3 2 2 2 3 4 10 16 8 10 7
15 15 6 2 3 2 3 2 1 1 10 18 8 6 4 3 6 4 3 4 3 3 3 5 15 15 12 10 7 7 10 8 7 5 4 5 2 5 4 5 9 5 4 4 4 18 8 9 7
14 12 2 3 2 3 3 1 5 11 20 6 3 4 3 2 3 2 3 3 2 3 4 4 11 12 10 9 7 9 10 8 8 5 7 5 4 4 10 8 6 7 11 10 6 8 6 9 10
9 4 4 3 2 4 3 3 4 12 5 3 3 7 6 6 3 1 2 2 2 3 4 4 7 10 9 11 10 10 8 6 3 6 6 5 5 5 9 3 4 7 6 7 6 6 7 7 9
8 2 2 2 3 4 4 5 9 4 7 7 4 3 4 4 6 5 1 1 2 3 4 4 6 9 11 11 11 9 6 5 2 6 3 5 6 8 10 8 9 10 8 7 5 5 6 9 11
1 2 2 1 3 4 7 5 5 5 7 10 5 7 4 3 5 5 3 2 2 2 4 3 4 8 7 7 7 7 5 4 3 7 5 8 11 12 10 12 12 10 9 8 7 8 8 8 9
4 3 3 2 3 5 3 6 2 6 7 2 15 4 4 6 6 6 6 4 4 2 2 3 2 4 6 6 6 6 5 5 5 4 9 14 13 9 10 13 12 12 11 8 10 11 12 12 12
4 4 4 3 2 4 3 8 7 5 5 15 4 3 4 15 14 8 9 7 7 5 3 2 2 2 2 3 5 6 6 7 7 6 7 7 8 8 11 12 12 12 12 10 9 11 12 15 14
6 3 3 4 5 4 3 4 3 8 10 12 7 9 9 15 16 10 12 11 9 8 5 4 4 3 3 4 5 6 7 7 8 7 7 8 7 8 8 9 10 11 11 11 11 11 13 15 15
5 4 9 5 4 4 6 6 10 5 8 11 13 8 15 17 17 14 14 14 12 10 8 7 7 6 6 5 5 5 6 7 8 7 7 8 7 8 9 9 10 11 12 12 13 13 14 15 16
6 5 5 4 11 10 6 9 4 4 5 9 16 26 18 20 19 19 15 16 14 12 11 10 10 9 9 8 7 6 7 7 7 7 8 8 8 8 9 11 11 13 13 14 15 16 17 18 19
4 8 7 4 7 5 4 9 8 13 21 19 25 27 30 25 19 20 16 13 15 15 14 13 12 13 12 11 10 8 9 7 7 7 8 9 9 10 12 13 14 15 16 17 18 19 20 21 22
4 4 8 14 13 15 14 16 12 22 34 24 22 17 19 20 23 19 13 11 12 15 14 14 14 14 13 13 11 10 10 9 9 9 9 11 12 12 14 15 16 16 17 18 20 21 23 24 25
9 16 18 14 18 13 8 12 3 29 26 25 19 23 20 22 17 16 11 11 11 12 12 13 14 14 13 12 11 9 9 8 10 10 10 12 14 14 15 16 17 18 18 20 22 24 26 27 29
8 3 4 6 8 6 6 7 8 27 21 20 17 14 17 10 10 11 10 9 10 11 13 14 15 16 14 11 9 8 7 8 9 10 12 14 15 16 17 18 18 19 20 21 23 25 27 28 29
8 3 8 3 4 4 4 12 7 12 3 6 8 7 3 1 2 3 3 4 6 7 10 11 11 11 14 12 10 9 8 9 10 11 13 14 15 17 18 20 20 21 23 24 26 27 29 30 31
3 5 4 5 8 5 6 7 5 6 9 12 9 3 1 2 3 3 2 2 3 4 5 6 5 4 8 11 11 10 9 10 11 13 15 16 16 17 19 21 21 22 24 26 27 28 30 30 32
9 6 3 5 3 3 4 13 14 19 10 13 6 4 5 5 6 7 7 7 7 7 8 8 9 8 4 2 4 6 6 8 10 13 14 15 15 16 16 17 18 20 22 24 25 27 27 29 31
7 6 10 3 2 2 5 6 14 13 9 13 8 10 10 9 9 10 11 12 12 13 13 16 17 17 13 10 7 4 2 2 3 5 7 9 10 11 12 13 15 16 18 19 21 23 25 26 26
6 5 5 4 1 2 6 15 14 6 7 8 12 15 15 14 13 13 14 15 15 16 18 18 19 17 15 13 11 10 9 9 9 8 7 8 9 10 11 13 14 16 17 18 20 22 24 25 24
4 6 4 3 3 1 5 6 5 2 2 3 10 19 16 17 17 15 15 16 15 16 17 17 17 17 18 17 14 12 11 11 10 10 10 10 10 11 12 14 16 18 20 22 23 24 25 27 28
11 5 4 2 4 2 4 6 5 6 3 4 11 17 20 20 18 16 16 15 14 16 15 15 15 16 17 15 13 11 12 11 12 10 10 9 11 14 16 19 21 23 25 26 27 27 28 29 30
4 6 5 3 3 2 1 2 6 2 4 6 10 16 19 20 19 17 15 15 15 13 12 13 13 14 14 13 13 12 12 12 9 9 10 13 17 20 22 25 27 28 28 28 28 28 27 27 28
8 6 4 3 1 2 5 5 5 3 4 4 7 17 20 22 21 18 16 14 13 12 11 10 11 13 12 11 12 12 11 11 11 14 17 21 24 28 30 31 31 31 31 30 30 29 28 27 27
4 7 2 2 3 5 2 2 9 3 4 6 14 24 24 24 24 20 17 15 13 11 9 9 9 11 11 11 11 12 12 13 16 19 22 25 28 30 30 30 30 30 29 28 28 28 28 28 28
4 7 4 5 4 3 3 5 5 2 5 9 16 28 26 26 23 20 17 14 12 11 9 7 8 9 8 9 11 11 12 15 18 21 25 26 27 28 28 28 27 27 27 27 28 29 29 29 28
3 5 3 4 2 1 2 5 7 1 4 3 14 30 31 28 25 21 18 15 14 11 9 6 6 6 6 8 9 11 14 18 22 24 25 26 26 27 26 25 24 24 25 27 29 31 32 32 33
6 8 2 1 4 3 3 4 4 5 5 3 5 16 27 26 24 22 19 17 15 11 8 6 4 3 4 7 9 12 17 20 23 24 25 25 24 23 22 23 24 26 28 30 32 33 34 34 35
3 2 2 4 3 3 0 4 4 5 5 4 9 25 28 26 24 22 19 17 15 12 9 6 2 2 3 6 10 15 18 21 23 24 23 22 22 22 23 25 26 28 31 33 34 35 36 37 35
6 8 7 4 3 1 2 5 1 6 6 6 15 26 26 23 22 20 19 18 16 12 9 6 2 1 4 8 14 18 20 22 22 21 21 21 21 22 24 26 29 31 33 35 36 37 36 35 34
Wind_Direction
323 335 338 333 79 57 230 245 340 347 331 281 307 256 252 248 220 282 333 330 337 26 152 187 187 204 200 215 264 247 280 292 296 274 189 134 219 310 142 178 220 336 298 281 189 185 212 240 262
322 334 333 56 90 109 259 289 252 287 301 306 293 239 247 264 244 276 332 342 350 37 107 173 190 200 207 218 248 260 283 288 288 256 170 155 241 301 265 239 245 209 272 287 196 198 220 241 247
322 337 351 81 84 189 222 229 297 301 320 256 291 251 256 232 242 280 338 0 8 59 91 161 187 196 196 213 237 273 280 292 289 218 171 166 228 269 300 279 279 272 268 278 299 243 244 239 216
335 336 50 80 248 258 236 286 312 323 353 41 289 283 265 256 256 246 343 15 37 71 89 129 174 183 199 217 239 274 281 289 284 179 176 181 241 274 286 299 324 323 296 277 274 264 265 255 249
335 19 53 57 273 276 265 277 329 310 297 300 294 270 267 286 260 268 272 74 73 75 86 111 166 176 204 233 250 268 278 294 243 186 198 183 218 244 288 300 324 331 325 301 296 292 281 269 268
35 75 60 276 254 264 283 282 321 310 318 300 310 288 261 293 291 260 239 186 173 115 95 106 166 182 213 230 249 259 274 305 295 229 234 222 222 240 248 278 305 316 324 311 303 317 306 299 293
151 107 208 212 257 297 245 339 337 316 307 282 323 261 309 15 325 252 244 220 210 182 126 120 148 188 216 245 264 269 275 295 307 268 243 226 240 242 251 269 296 309 311 298 301 299 304 304 302
180 112 144 228 226 269 260 327 318 328 312 320 337 273 333 346 334 280 257 240 228 219 208 179 194 217 207 249 262 264 272 278 291 297 264 244 250 268 273 286 293 293 297 298 279 286 295 299 295
179 109 182 226 173 245 253 340 290 313 288 304 275 293 303 337 341 303 261 256 249 237 238 242 240 240 255 259 274 276 273 272 281 287 277 269 273 282 290 292 293 292 296 295 293 285 281 287 289
170 175 199 204 199 239 282 289 312 307 299 298 290 287 324 322 335 318 284 267 269 268 269 268 260 262 264 268 276 285 279 281 287 292 289 280 284 286 290 298 305 309 310 312 313 313 311 311 311
184 194 205 229 239 264 275 297 287 289 287 274 290 308 316 312 320 320 293 272 275 279 271 277 270 266 264 268 271 284 284 288 294 300 298 290 289 296 298 302 307 307 312 312 312 314 314 313 314
182 231 206 232 258 256 258 289 278 246 267 297 295 294 300 305 305 314 289 277 278 284 280 279 277 270 269 267 276 277 278 286 293 296 294 296 297 299 303 305 307 309 313 315 316 314 312 309 308
196 223 227 246 263 275 279 262 261 270 285 294 292 288 300 300 299 300 288 272 274 278 278 275 274 271 270 268 273 276 278 283 290 291 293 296 301 308 309 312 312 314 317 317 313 309 307 304 303
199 213 246 262 273 274 251 276 231 277 290 279 278 291 293 295 276 286 277 263 268 275 273 272 274 268 261 262 267 276 280 288 286 289 297 299 302 307 311 313 313 314 314 313 311 310 309 307 305
184 198 272 233 260 257 276 266 232 290 290 277 274 283 304 275 251 259 267 267 269 277 281 282 277 269 262 258 258 264 280 292 298 300 299 298 303 308 308 307 309 311 311 309 308 308 307 305 304
161 160 245 246 184 258 167 269 284 346 282 297 301 300 313 190 208 244 269 283 288 294 297 298 292 275 251 249 247 254 267 280 288 292 292 295 298 301 303 305 306 308 307 306 308 307 306 305 305
192 206 206 282 224 213 194 288 253 286 323 293 307 338 114 89 75 79 56 17 343 325 337 347 342 264 238 231 232 241 254 265 274 285 293 299 303 304 303 301 301 301 303 305 304 304 304 303 301
181 181 168 204 185 168 242 269 285 297 273 263 268 226 159 125 91 83 79 74 77 72 57 54 58 67 85 167 226 251 270 274 281 294 303 307 309 310 310 308 306 306 309 311 311 309 307 306 304
147 152 196 238 251 231 252 271 288 292 259 261 233 183 157 132 108 101 100 94 91 90 83 73 70 67 69 74 85 89 84 13 336 342 339 332 333 332 332 328 325 323 323 325 325 322 321 320 324
154 155 205 274 173 211 298 292 272 274 254 229 195 175 162 143 130 117 110 107 97 89 78 70 63 61 58 55 57 63 65 67 63 55 37 22 9 1 355 348 340 333 329 327 326 328 326 324 329
174 162 176 215 322 235 304 287 313 295 210 146 170 169 162 150 140 129 118 104 96 86 74 67 63 59 57 56 61 68 73 83 83 64 49 33 14 359 348 340 335 332 330 329 329 328 329 326 322
207 175 144 109 32 267 19 292 283 283 261 148 162 173 157 152 144 135 123 113 98 82 75 68 65 63 66 70 74 75 77 67 59 45 30 9 358 353 347 342 337 334 331 328 327 325 322 320 321
196 167 175 178 177 30 317 248 277 340 264 195 186 180 163 153 149 140 132 124 110 98 80 69 64 67 68 63 62 59 55 54 42 24 8 1 355 349 345 341 338 335 334 331 329 327 325 322 321
149 89 68 68 101 282 218 197 271 226 212 158 172 184 170 158 153 152 144 135 123 109 95 82 70 72 67 58 52 44 37 29 12 4 356 353 348 343 339 336 335 334 333 333 332 331 329 327 323
126 109 64 207 200 227 127 167 254 269 242 189 183 185 176 167 163 162 156 148 135 127 110 93 79 78 67 47 37 31 22 11 3 357 351 344 340 337 334 334 334 335 335 335 336 335 333 331 327
191 133 182 183 185 226 123 226 250 201 283 245 204 182 174 171 169 165 162 157 153 142 128 107 89 74 58 39 28 20 10 4 357 351 346 342 339 336 335 337 337 338 338 338 337 336 335 334 331
176 178 165 110 59 87 231 284 300 257 13 61 170 177 179 175 173 171 171 170 165 156 145 130 101 72 47 27 18 7 2 355 350 345 342 338 336 335 333 334 336 338 339 338 338 337 336 332 331
146 152 168 346 188 228 281 280 246 330 357 98 154 175 179 175 175 176 177 176 170 168 162 147 120 71 34 16 6 1 355 350 347 342 337 334 330 331 334 337 339 341 341 339 337 334 331 328 327
134 120 233 140 133 168 273 265 215 268 281 242 186 183 180 179 180 180 179 177 178 176 173 172 155 52 21 7 359 353 351 348 342 337 334 334 334 336 338 339 340 340 338 336 333 331 328 326 326
164 176 180 150 198 102 124 274 281 280 281 221 181 184 184 184 184 185 185 185 183 184 186 187 190 358 3 357 354 350 346 342 339 337 335 335 336 338 339 340 340 338 337 335 332 328 328 328 326